RA73750 VRMM-FSIA

Flight info

Callsign RA73750
Flight time 2h 34m
Altitude 40000
Route ESKOL G465 OTKIR UM307 ORLOM DCT TIBUL T146 DULMA
Aircraft C750/M-SABDGRWY/H

Departure

Time 2026-04-25 10:25
Airport Velana International Airport (VRMM)

Arrival

Time 2026-04-25 12:59
Airport Seychelles International Airport (FSIA)
Time Latitude Longitude Altitude Speed Heading
2026-04-25 10:08 4.18954 73.52788 12 ft 0 kts 269°
2026-04-25 10:17 4.18954 73.52789 12 ft 2 kts 269°
2026-04-25 10:17 4.18955 73.52808 12 ft 3 kts 269°
2026-04-25 10:17 4.18955 73.52826 12 ft 3 kts 266°
2026-04-25 10:18 4.18959 73.52841 12 ft 3 kts 226°
2026-04-25 10:18 4.18976 73.52849 12 ft 3 kts 175°
2026-04-25 10:20 4.18975 73.52849 12 ft 1 kts 173°
2026-04-25 10:20 4.18961 73.52851 12 ft 3 kts 173°
2026-04-25 10:20 4.18935 73.52862 12 ft 5 kts 134°
2026-04-25 10:21 4.18925 73.52901 12 ft 7 kts 116°
2026-04-25 10:21 4.18880 73.52921 13 ft 8 kts 174°
2026-04-25 10:21 4.18815 73.52923 13 ft 10 kts 178°
2026-04-25 10:21 4.18734 73.52926 12 ft 13 kts 178°
2026-04-25 10:22 4.18637 73.52929 12 ft 15 kts 178°
2026-04-25 10:22 4.18560 73.52941 12 ft 3 kts 142°
2026-04-25 10:22 4.18549 73.52967 12 ft 5 kts 94°
2026-04-25 10:22 4.18549 73.52980 12 ft 0 kts 90°
2026-04-25 10:23 4.18549 73.52989 12 ft 4 kts 90°
2026-04-25 10:23 4.18550 73.53040 12 ft 10 kts 89°
2026-04-25 10:23 4.18577 73.53100 12 ft 8 kts 22°
2026-04-25 10:24 4.18640 73.53104 12 ft 10 kts
2026-04-25 10:24 4.18749 73.53107 13 ft 33 kts
2026-04-25 10:24 4.19318 73.53099 13 ft 126 kts
2026-04-25 10:24 4.20344 73.53109 220 ft 155 kts 359°
2026-04-25 10:25 4.21484 73.53100 756 ft 169 kts 355°
2026-04-25 10:25 4.22688 73.53055 1358 ft 181 kts 357°
2026-04-25 10:25 4.23989 73.53034 1852 ft 199 kts 358°
2026-04-25 10:25 4.25466 73.53056 2307 ft 223 kts 360°
2026-04-25 10:26 4.27114 73.53081 2676 ft 250 kts 359°
2026-04-25 10:26 4.28938 73.53086 3206 ft 267 kts 359°
2026-04-25 10:26 4.30790 73.53086 4166 ft 266 kts 359°
2026-04-25 10:26 4.32661 73.53088 4964 ft 272 kts 360°
2026-04-25 10:27 4.34568 73.53089 5785 ft 274 kts 360°
2026-04-25 10:27 4.36464 73.53087 6551 ft 278 kts
2026-04-25 10:27 4.38405 73.53060 7316 ft 281 kts 356°
2026-04-25 10:27 4.40262 73.52398 8023 ft 288 kts 327°
2026-04-25 10:28 4.41633 73.50942 8892 ft 293 kts 301°
2026-04-25 10:28 4.42203 73.48969 9677 ft 298 kts 275°
2026-04-25 10:28 4.42233 73.46880 10354 ft 304 kts 270°
2026-04-25 10:28 4.42195 73.44701 10549 ft 328 kts 269°
2026-04-25 10:29 4.42179 73.42324 10618 ft 353 kts 270°
2026-04-25 10:29 4.42195 73.39800 10941 ft 366 kts 271°
2026-04-25 10:29 4.42204 73.37248 11678 ft 366 kts 270°
2026-04-25 10:29 4.42196 73.34675 12263 ft 371 kts 270°
2026-04-25 10:30 4.42191 73.32077 12888 ft 374 kts 270°
2026-04-25 10:30 4.42193 73.30347 13302 ft 377 kts 270°
2026-04-25 10:30 4.42198 73.26809 14064 ft 381 kts 270°
2026-04-25 10:30 4.42196 73.24137 14594 ft 385 kts 270°
2026-04-25 10:31 4.42114 73.21481 15060 ft 389 kts 264°
2026-04-25 10:31 4.41261 73.18899 15524 ft 393 kts 243°
2026-04-25 10:31 4.39639 73.16701 16092 ft 395 kts 224°
2026-04-25 10:31 4.37404 73.15066 16666 ft 397 kts 212°
2026-04-25 10:32 4.35023 73.13626 17241 ft 401 kts 210°
2026-04-25 10:32 4.32645 73.12212 17815 ft 405 kts 211°
2026-04-25 10:32 4.30227 73.10733 18350 ft 409 kts 211°
2026-04-25 10:32 4.27788 73.09222 18900 ft 412 kts 211°
2026-04-25 10:33 4.25329 73.07721 19495 ft 414 kts 211°
2026-04-25 10:33 4.22855 73.06222 20092 ft 416 kts 211°
2026-04-25 10:33 4.20404 73.04728 20686 ft 418 kts 211°
2026-04-25 10:33 4.17914 73.03201 21289 ft 421 kts 211°
2026-04-25 10:34 4.15408 73.01670 21889 ft 423 kts 211°
2026-04-25 10:34 4.12875 73.00128 22476 ft 426 kts 211°
2026-04-25 10:34 4.10323 72.98571 23068 ft 429 kts 211°
2026-04-25 10:34 4.07791 72.97024 23599 ft 432 kts 211°
2026-04-25 10:35 4.05207 72.95447 24104 ft 434 kts 210°
2026-04-25 10:35 4.02617 72.93868 24611 ft 437 kts 210°
2026-04-25 10:35 4.00015 72.92280 25104 ft 439 kts 210°
2026-04-25 10:35 3.97426 72.90700 25596 ft 442 kts 210°
2026-04-25 10:36 3.94782 72.89087 26094 ft 444 kts 210°
2026-04-25 10:36 3.92137 72.87475 26593 ft 447 kts 210°
2026-04-25 10:36 3.89464 72.85845 27087 ft 449 kts 210°
2026-04-25 10:36 3.86782 72.84209 27590 ft 452 kts 210°
2026-04-25 10:37 3.84122 72.82583 28066 ft 455 kts 210°
2026-04-25 10:37 3.81563 72.80684 28480 ft 461 kts 219°
2026-04-25 10:37 3.79286 72.78373 28987 ft 465 kts 227°
2026-04-25 10:37 3.77399 72.75770 29423 ft 471 kts 236°
2026-04-25 10:38 3.75814 72.72869 29863 ft 475 kts 239°
2026-04-25 10:38 3.74261 72.69928 30233 ft 478 kts 239°
2026-04-25 10:38 3.72691 72.66995 30623 ft 479 kts 239°
2026-04-25 10:38 3.71115 72.64042 31101 ft 478 kts 239°
2026-04-25 10:39 3.69582 72.61147 31661 ft 475 kts 239°
2026-04-25 10:39 3.68033 72.58226 32175 ft 473 kts 239°
2026-04-25 10:39 3.66486 72.55324 32704 ft 471 kts 239°
2026-04-25 10:39 3.64944 72.52430 33220 ft 469 kts 239°
2026-04-25 10:40 3.63412 72.49545 33741 ft 467 kts 239°
2026-04-25 10:40 3.61900 72.46700 34217 ft 465 kts 239°
2026-04-25 10:40 3.60384 72.43852 34724 ft 463 kts 239°
2026-04-25 10:40 3.59359 72.41927 35067 ft 461 kts 239°
2026-04-25 10:41 3.57370 72.38188 35763 ft 457 kts 239°
2026-04-25 10:41 3.55880 72.35389 36287 ft 454 kts 239°
2026-04-25 10:41 3.54398 72.32604 36813 ft 452 kts 239°
2026-04-25 10:41 3.52922 72.29831 37338 ft 449 kts 239°
2026-04-25 10:42 3.51455 72.27075 37869 ft 447 kts 239°
2026-04-25 10:42 3.49996 72.24334 38418 ft 445 kts 239°
2026-04-25 10:42 3.48564 72.21645 38867 ft 443 kts 239°
2026-04-25 10:42 3.47116 72.18926 39273 ft 442 kts 240°
2026-04-25 10:43 3.45671 72.16212 39673 ft 441 kts 240°
2026-04-25 10:43 3.44222 72.13492 39812 ft 448 kts 240°
2026-04-25 10:43 3.42735 72.10703 39814 ft 457 kts 240°
2026-04-25 10:44 3.39688 72.04980 39824 ft 475 kts 240°
2026-04-25 10:44 3.36446 71.99104 39832 ft 488 kts 239°
2026-04-25 10:45 3.33157 71.93113 39827 ft 499 kts 240°
2026-04-25 10:45 3.29792 71.86981 39824 ft 505 kts 239°
2026-04-25 10:46 3.26374 71.80773 39831 ft 509 kts 239°
2026-04-25 10:46 3.22980 71.74587 39830 ft 509 kts 239°
2026-04-25 10:47 3.19550 71.68356 39829 ft 510 kts 239°
2026-04-25 10:47 3.16128 71.62128 39841 ft 510 kts 239°
2026-04-25 10:48 3.12726 71.55944 39810 ft 510 kts 239°
2026-04-25 10:48 3.09305 71.49724 39815 ft 510 kts 239°
2026-04-25 10:49 3.06457 71.44548 39823 ft 510 kts 239°
2026-04-25 10:49 3.03102 71.38450 39819 ft 511 kts 239°
2026-04-25 10:50 2.99716 71.32297 39812 ft 511 kts 239°
2026-04-25 10:50 2.96367 71.26213 39815 ft 511 kts 239°
2026-04-25 10:51 2.93028 71.20148 39816 ft 511 kts 239°
2026-04-25 10:51 2.89681 71.14069 39822 ft 511 kts 239°
2026-04-25 10:52 2.86295 71.07919 39819 ft 511 kts 239°
2026-04-25 10:52 2.82948 71.01842 39828 ft 511 kts 239°
2026-04-25 10:53 2.79594 70.95753 39828 ft 511 kts 239°
2026-04-25 10:53 2.76117 70.89443 39820 ft 512 kts 239°
2026-04-25 10:54 2.72676 70.83197 39830 ft 512 kts 239°
2026-04-25 10:54 2.69234 70.76952 39829 ft 512 kts 239°
2026-04-25 10:55 2.65815 70.70750 39828 ft 512 kts 239°
2026-04-25 10:55 2.62378 70.64514 39835 ft 512 kts 239°
2026-04-25 10:56 2.58928 70.58257 39835 ft 512 kts 239°
2026-04-25 10:56 2.55476 70.51997 39831 ft 513 kts 239°
2026-04-25 10:57 2.52058 70.45798 39834 ft 513 kts 239°
2026-04-25 10:57 2.48600 70.39529 39832 ft 513 kts 239°
2026-04-25 10:58 2.45171 70.33314 39831 ft 513 kts 239°
2026-04-25 10:58 2.41722 70.27061 39834 ft 513 kts 239°
2026-04-25 10:59 2.38271 70.20808 39832 ft 512 kts 239°
2026-04-25 10:59 2.34844 70.14599 39828 ft 513 kts 239°
2026-04-25 11:00 2.31397 70.08353 39831 ft 513 kts 239°
2026-04-25 11:00 2.27947 70.02102 39831 ft 513 kts 239°
2026-04-25 11:01 2.24492 69.95845 39834 ft 513 kts 240°
2026-04-25 11:01 2.21062 69.89633 39835 ft 513 kts 240°
2026-04-25 11:02 2.17616 69.83392 39831 ft 512 kts 240°
2026-04-25 11:02 2.14166 69.77146 39833 ft 512 kts 240°
2026-04-25 11:03 2.10737 69.70938 39831 ft 512 kts 240°
2026-04-25 11:03 2.07288 69.64694 39833 ft 511 kts 240°
2026-04-25 11:04 2.03845 69.58463 39829 ft 512 kts 240°
2026-04-25 11:04 2.00416 69.52257 39830 ft 511 kts 240°
2026-04-25 11:05 1.96988 69.46053 39824 ft 511 kts 240°
2026-04-25 11:05 1.93539 69.39813 39828 ft 511 kts 240°
2026-04-25 11:06 1.90092 69.33576 39828 ft 511 kts 240°
2026-04-25 11:06 1.86662 69.27370 39829 ft 511 kts 240°
2026-04-25 11:07 1.83219 69.21143 39831 ft 511 kts 240°
2026-04-25 11:07 1.79930 69.14866 39831 ft 512 kts 242°
2026-04-25 11:08 1.76754 69.08461 39829 ft 512 kts 242°
2026-04-25 11:08 1.73579 69.02112 39827 ft 512 kts 242°
2026-04-25 11:09 1.70399 68.95717 39829 ft 512 kts 242°
2026-04-25 11:09 1.67231 68.89371 39831 ft 512 kts 242°
2026-04-25 11:10 1.64069 68.83021 39832 ft 512 kts 242°
2026-04-25 11:10 1.60884 68.76634 39833 ft 512 kts 242°
2026-04-25 11:11 1.57704 68.70254 39831 ft 512 kts 242°
2026-04-25 11:11 1.54522 68.63872 39827 ft 512 kts 242°
2026-04-25 11:12 1.51356 68.57522 39830 ft 512 kts 242°
2026-04-25 11:12 1.48171 68.51136 39831 ft 513 kts 242°
2026-04-25 11:13 1.45009 68.44797 39834 ft 513 kts 242°
2026-04-25 11:13 1.41814 68.38391 39832 ft 513 kts 242°
2026-04-25 11:14 1.38648 68.32042 39830 ft 513 kts 242°
2026-04-25 11:14 1.35458 68.25648 39834 ft 513 kts 242°
2026-04-25 11:15 1.32273 68.19263 39833 ft 512 kts 242°
2026-04-25 11:15 1.29099 68.12903 39832 ft 513 kts 242°
2026-04-25 11:16 1.24329 68.03343 39831 ft 513 kts 242°
2026-04-25 11:16 1.21159 67.96989 39830 ft 513 kts 242°
2026-04-25 11:17 1.17967 67.90594 39829 ft 513 kts 242°
2026-04-25 11:17 1.14780 67.84208 39832 ft 513 kts 242°
2026-04-25 11:18 1.11588 67.77813 39833 ft 514 kts 242°
2026-04-25 11:18 1.08414 67.71453 39828 ft 514 kts 243°
2026-04-25 11:19 1.05217 67.65050 39830 ft 514 kts 243°
2026-04-25 11:19 1.02021 67.58646 39830 ft 514 kts 243°
2026-04-25 11:20 0.98855 67.52306 39831 ft 514 kts 243°
2026-04-25 11:20 0.95645 67.45877 39830 ft 513 kts 243°
2026-04-25 11:21 0.92471 67.39519 39829 ft 514 kts 243°
2026-04-25 11:21 0.89273 67.33114 39834 ft 514 kts 243°
2026-04-25 11:22 0.86627 67.27816 39835 ft 514 kts 243°
2026-04-25 11:22 0.82891 67.20334 39836 ft 514 kts 243°
2026-04-25 11:23 0.79710 67.13966 39836 ft 514 kts 243°
2026-04-25 11:23 0.76521 67.07579 39834 ft 514 kts 243°
2026-04-25 11:24 0.73318 67.01166 39835 ft 514 kts 243°
2026-04-25 11:24 0.70130 66.94783 39837 ft 514 kts 243°
2026-04-25 11:25 0.66929 66.88375 39830 ft 514 kts 243°
2026-04-25 11:25 0.63730 66.81970 39832 ft 515 kts 243°
2026-04-25 11:26 0.60552 66.75609 39830 ft 515 kts 243°
2026-04-25 11:26 0.57351 66.69201 39831 ft 515 kts 243°
2026-04-25 11:27 0.54165 66.62823 39833 ft 515 kts 243°
2026-04-25 11:27 0.51484 66.57456 39832 ft 515 kts 243°
2026-04-25 11:28 0.47761 66.50004 39835 ft 515 kts 243°
2026-04-25 11:28 0.44572 66.43620 39832 ft 515 kts 243°
2026-04-25 11:29 0.41370 66.37212 39832 ft 514 kts 243°
2026-04-25 11:29 0.38184 66.30836 39833 ft 514 kts 243°
2026-04-25 11:30 0.34973 66.24408 39834 ft 515 kts 243°
2026-04-25 11:30 0.31790 66.18038 39837 ft 515 kts 243°
2026-04-25 11:31 0.28577 66.11608 39835 ft 515 kts 243°
2026-04-25 11:31 0.25389 66.05228 39833 ft 515 kts 243°
2026-04-25 11:32 0.22181 65.98808 39832 ft 515 kts 243°
2026-04-25 11:32 0.18977 65.92396 39833 ft 515 kts 243°
2026-04-25 11:33 0.15793 65.86023 39828 ft 515 kts 243°
2026-04-25 11:33 0.12581 65.79597 39831 ft 515 kts 243°
2026-04-25 11:34 0.09378 65.73185 39830 ft 515 kts 243°
2026-04-25 11:34 0.06194 65.66813 39826 ft 514 kts 243°
2026-04-25 11:35 0.02990 65.60402 39826 ft 515 kts 243°
2026-04-25 11:35 -0.00172 65.53997 39825 ft 514 kts 245°
2026-04-25 11:36 -0.03034 65.47461 39826 ft 515 kts 246°
2026-04-25 11:36 -0.05387 65.42136 39825 ft 515 kts 245°
2026-04-25 11:37 -0.05877 65.41034 39826 ft 515 kts 245°
2026-04-25 11:37 -0.07819 65.36635 39826 ft 515 kts 246°
2026-04-25 11:38 -0.10703 65.30074 39825 ft 515 kts 246°
2026-04-25 11:38 -0.13604 65.23507 39823 ft 515 kts 246°
2026-04-25 11:39 -0.16476 65.16985 39821 ft 515 kts 246°
2026-04-25 11:39 -0.19363 65.10441 39824 ft 515 kts 246°
2026-04-25 11:40 -0.22256 65.03877 39824 ft 515 kts 246°
2026-04-25 11:40 -0.25132 64.97354 39824 ft 514 kts 246°
2026-04-25 11:41 -0.28026 64.90787 39826 ft 515 kts 246°
2026-04-25 11:41 -0.30904 64.84261 39825 ft 515 kts 246°
2026-04-25 11:42 -0.33797 64.77699 39825 ft 515 kts 246°
2026-04-25 11:42 -0.36670 64.71179 39826 ft 515 kts 246°
2026-04-25 11:43 -0.39557 64.64632 39825 ft 515 kts 246°
2026-04-25 11:43 -0.42448 64.58073 39828 ft 515 kts 246°
2026-04-25 11:44 -0.45338 64.51517 39829 ft 515 kts 246°
2026-04-25 11:44 -0.48216 64.44986 39829 ft 515 kts 246°
2026-04-25 11:45 -0.51110 64.38420 39831 ft 516 kts 246°
2026-04-25 11:45 -0.54007 64.31848 39825 ft 516 kts 246°
2026-04-25 11:46 -0.56889 64.25308 39826 ft 516 kts 246°
2026-04-25 11:46 -0.59778 64.18752 39826 ft 516 kts 246°
2026-04-25 11:47 -0.62661 64.12211 39828 ft 516 kts 246°
2026-04-25 11:47 -0.65562 64.05627 39832 ft 516 kts 246°
2026-04-25 11:48 -0.68463 63.99044 39829 ft 517 kts 246°
2026-04-25 11:48 -0.71344 63.92507 39831 ft 516 kts 246°
2026-04-25 11:49 -0.74248 63.85916 39829 ft 517 kts 246°
2026-04-25 11:49 -0.77145 63.79340 39830 ft 517 kts 246°
2026-04-25 11:50 -0.80027 63.72799 39830 ft 517 kts 246°
2026-04-25 11:50 -0.82933 63.66202 39833 ft 517 kts 246°
2026-04-25 11:51 -0.85726 63.59864 39826 ft 517 kts 246°
2026-04-25 11:51 -0.88546 63.53462 39821 ft 517 kts 246°
2026-04-25 11:52 -0.91362 63.47069 39820 ft 517 kts 246°
2026-04-25 11:52 -0.94198 63.40630 39821 ft 518 kts 246°
2026-04-25 11:53 -0.97031 63.34196 39825 ft 518 kts 246°
2026-04-25 11:53 -0.99892 63.27702 39827 ft 518 kts 247°
2026-04-25 11:54 -1.02678 63.21376 39827 ft 518 kts 247°
2026-04-25 11:55 -1.06940 63.11696 39824 ft 519 kts 247°
2026-04-25 11:55 -1.09782 63.05241 39824 ft 519 kts 247°
2026-04-25 11:56 -1.12650 62.98728 39824 ft 519 kts 247°
2026-04-25 11:56 -1.15472 62.92318 39829 ft 519 kts 247°
2026-04-25 11:57 -1.18301 62.85891 39828 ft 520 kts 248°
2026-04-25 11:57 -1.21170 62.79374 39829 ft 521 kts 248°
2026-04-25 11:58 -1.24004 62.72936 39831 ft 521 kts 248°
2026-04-25 11:58 -1.26841 62.66489 39826 ft 522 kts 248°
2026-04-25 11:59 -1.29698 62.59998 39828 ft 523 kts 248°
2026-04-25 11:59 -1.32563 62.53487 39826 ft 523 kts 248°
2026-04-25 12:00 -1.36957 62.43501 39836 ft 523 kts 248°
2026-04-25 12:01 -1.41365 62.33482 39837 ft 524 kts 248°
2026-04-25 12:01 -1.44290 62.26831 39837 ft 524 kts 248°
2026-04-25 12:02 -1.48686 62.16836 39839 ft 524 kts 248°
2026-04-25 12:02 -1.51630 62.10145 39841 ft 524 kts 249°
2026-04-25 12:03 -1.54553 62.03497 39843 ft 525 kts 248°
2026-04-25 12:03 -1.57496 61.96804 39845 ft 524 kts 248°
2026-04-25 12:04 -1.60429 61.90132 39843 ft 524 kts 248°
2026-04-25 12:04 -1.63351 61.83486 39840 ft 525 kts 249°
2026-04-25 12:05 -1.66297 61.76784 39837 ft 525 kts 249°
2026-04-25 12:05 -1.69225 61.70123 39841 ft 526 kts 248°
2026-04-25 12:06 -1.72162 61.63441 39842 ft 526 kts 248°
2026-04-25 12:06 -1.75109 61.56733 39842 ft 526 kts 249°
2026-04-25 12:07 -1.78046 61.50047 39839 ft 527 kts 249°
2026-04-25 12:07 -1.81002 61.43320 39835 ft 527 kts 249°
2026-04-25 12:08 -1.83941 61.36629 39836 ft 528 kts 249°
2026-04-25 12:08 -1.86900 61.29894 39835 ft 528 kts 249°
2026-04-25 12:09 -1.89859 61.23154 39837 ft 528 kts 249°
2026-04-25 12:09 -1.92793 61.16474 39837 ft 528 kts 249°
2026-04-25 12:10 -1.95758 61.09720 39835 ft 529 kts 249°
2026-04-25 12:10 -1.98719 61.02976 39835 ft 529 kts 249°
2026-04-25 12:11 -2.01670 60.96252 39834 ft 529 kts 249°
2026-04-25 12:11 -2.04611 60.89551 39840 ft 529 kts 249°
2026-04-25 12:12 -2.07083 60.83918 39840 ft 529 kts 249°
2026-04-25 12:12 -2.10532 60.76060 39841 ft 529 kts 249°
2026-04-25 12:13 -2.13497 60.69300 39841 ft 530 kts 249°
2026-04-25 12:13 -2.16444 60.62581 39842 ft 530 kts 249°
2026-04-25 12:14 -2.19407 60.55825 39839 ft 530 kts 249°
2026-04-25 12:14 -2.22375 60.49060 39842 ft 530 kts 249°
2026-04-25 12:15 -2.25324 60.42333 39841 ft 530 kts 249°
2026-04-25 12:15 -2.28284 60.35583 39839 ft 530 kts 249°
2026-04-25 12:16 -2.31229 60.28863 39840 ft 529 kts 249°
2026-04-25 12:16 -2.34191 60.22103 39839 ft 529 kts 249°
2026-04-25 12:17 -2.37137 60.15382 39838 ft 529 kts 249°
2026-04-25 12:17 -2.40100 60.08618 39841 ft 529 kts 249°
2026-04-25 12:18 -2.43037 60.01914 39841 ft 529 kts 249°
2026-04-25 12:18 -2.45998 59.95153 39843 ft 529 kts 249°
2026-04-25 12:19 -2.50416 59.85055 39843 ft 530 kts 249°
2026-04-25 12:20 -2.53359 59.78326 39843 ft 529 kts 249°
2026-04-25 12:20 -2.56318 59.71563 39840 ft 529 kts 249°
2026-04-25 12:21 -2.59271 59.64809 39839 ft 530 kts 249°
2026-04-25 12:21 -2.62209 59.58092 39840 ft 530 kts 249°
2026-04-25 12:22 -2.65166 59.51328 39840 ft 530 kts 249°
2026-04-25 12:22 -2.68108 59.44596 39836 ft 530 kts 249°
2026-04-25 12:23 -2.71066 59.37829 39838 ft 530 kts 249°
2026-04-25 12:23 -2.74029 59.31047 39837 ft 530 kts 249°
2026-04-25 12:24 -2.76969 59.24318 39839 ft 530 kts 249°
2026-04-25 12:24 -2.79425 59.18696 39838 ft 531 kts 249°
2026-04-25 12:25 -2.82872 59.10803 39837 ft 531 kts 249°
2026-04-25 12:25 -2.85828 59.04033 39835 ft 531 kts 249°
2026-04-25 12:26 -2.88289 58.98396 39836 ft 531 kts 249°
2026-04-25 12:26 -2.91250 58.91613 39837 ft 531 kts 249°
2026-04-25 12:27 -2.94195 58.84863 39838 ft 531 kts 249°
2026-04-25 12:27 -2.97154 58.78082 39836 ft 531 kts 249°
2026-04-25 12:28 -3.00055 58.71315 39838 ft 530 kts 250°
2026-04-25 12:28 -3.02920 58.64490 39837 ft 531 kts 249°
2026-04-25 12:29 -3.05808 58.57731 39838 ft 531 kts 250°
2026-04-25 12:29 -3.08681 58.50913 39835 ft 531 kts 250°
2026-04-25 12:30 -3.11565 58.44136 39838 ft 531 kts 250°
2026-04-25 12:30 -3.14443 58.37324 39836 ft 531 kts 250°
2026-04-25 12:31 -3.17331 58.30518 39836 ft 531 kts 250°
2026-04-25 12:31 -3.20214 58.23704 39836 ft 531 kts 250°
2026-04-25 12:32 -3.23080 58.16939 39839 ft 530 kts 250°
2026-04-25 12:32 -3.25963 58.10125 39843 ft 530 kts 250°
2026-04-25 12:33 -3.28831 58.03350 39835 ft 530 kts 250°
2026-04-25 12:33 -3.31708 57.96552 39840 ft 531 kts 250°
2026-04-25 12:34 -3.34576 57.89773 39835 ft 530 kts 250°
2026-04-25 12:34 -3.37463 57.82947 39838 ft 531 kts 250°
2026-04-25 12:35 -3.40323 57.76182 39836 ft 531 kts 250°
2026-04-25 12:35 -3.43258 57.69371 39819 ft 533 kts 246°
2026-04-25 12:36 -3.46947 57.62945 39834 ft 535 kts 241°
2026-04-25 12:36 -3.50678 57.56487 39836 ft 535 kts 243°
2026-04-25 12:37 -3.54385 57.50016 39838 ft 535 kts 242°
2026-04-25 12:37 -3.58125 57.43565 39838 ft 535 kts 242°
2026-04-25 12:38 -3.61805 57.37138 39837 ft 535 kts 242°
2026-04-25 12:38 -3.65544 57.30675 39838 ft 534 kts 242°
2026-04-25 12:39 -3.69239 57.24232 39839 ft 533 kts 242°
2026-04-25 12:39 -3.71104 57.21003 39363 ft 535 kts 242°
2026-04-25 12:39 -3.72938 57.17820 38663 ft 536 kts 242°
2026-04-25 12:39 -3.74812 57.14558 37905 ft 538 kts 242°
2026-04-25 12:40 -3.76683 57.11303 37202 ft 540 kts 241°
2026-04-25 12:40 -3.78565 57.08036 36489 ft 542 kts 241°
2026-04-25 12:40 -3.80454 57.04755 35776 ft 543 kts 241°
2026-04-25 12:40 -3.82338 57.01476 35058 ft 544 kts 241°
2026-04-25 12:41 -3.84205 56.98229 34348 ft 544 kts 241°
2026-04-25 12:41 -3.86097 56.94941 33603 ft 544 kts 241°
2026-04-25 12:41 -3.87992 56.91646 32876 ft 543 kts 241°
2026-04-25 12:41 -3.89881 56.88359 32157 ft 545 kts 240°
2026-04-25 12:42 -3.91752 56.85104 31443 ft 547 kts 240°
2026-04-25 12:42 -3.93038 56.82868 30958 ft 549 kts 240°
2026-04-25 12:42 -3.95578 56.78449 29995 ft 552 kts 240°
2026-04-25 12:42 -3.97467 56.75161 29227 ft 544 kts 240°
2026-04-25 12:43 -3.99322 56.71936 28517 ft 515 kts 240°
2026-04-25 12:43 -4.01091 56.68856 27848 ft 515 kts 240°
2026-04-25 12:43 -4.04705 56.62563 26480 ft 522 kts 240°
2026-04-25 12:44 -4.06514 56.59417 25790 ft 517 kts 240°
2026-04-25 12:44 -4.08282 56.56336 25114 ft 513 kts 240°
2026-04-25 12:44 -4.11820 56.50173 23773 ft 506 kts 240°
2026-04-25 12:45 -4.13581 56.47107 23058 ft 503 kts 240°
2026-04-25 12:45 -4.15294 56.44123 22403 ft 498 kts 240°
2026-04-25 12:45 -4.18734 56.38130 21097 ft 491 kts 240°
2026-04-25 12:46 -4.20433 56.35168 20450 ft 486 kts 240°
2026-04-25 12:46 -4.22116 56.32237 19810 ft 482 kts 240°
2026-04-25 12:46 -4.23765 56.29362 19189 ft 479 kts 240°
2026-04-25 12:46 -4.25423 56.26470 18558 ft 475 kts 240°
2026-04-25 12:47 -4.27064 56.23609 17902 ft 471 kts 240°
2026-04-25 12:47 -4.28687 56.20781 17271 ft 465 kts 240°
2026-04-25 12:47 -4.30274 56.18014 16667 ft 460 kts 240°
2026-04-25 12:47 -4.31865 56.15241 16065 ft 456 kts 240°
2026-04-25 12:48 -4.33435 56.12500 15461 ft 451 kts 240°
2026-04-25 12:48 -4.35002 56.09769 14867 ft 447 kts 240°
2026-04-25 12:48 -4.36527 56.07109 14290 ft 443 kts 240°
2026-04-25 12:48 -4.38061 56.04432 13719 ft 440 kts 240°
2026-04-25 12:49 -4.39589 56.01765 13090 ft 435 kts 240°
2026-04-25 12:49 -4.41080 55.99164 12522 ft 432 kts 240°
2026-04-25 12:49 -4.42602 55.96583 11947 ft 422 kts 237°
2026-04-25 12:49 -4.44517 55.94536 11813 ft 382 kts 221°
2026-04-25 12:50 -4.46400 55.92884 11824 ft 346 kts 221°
2026-04-25 12:50 -4.48155 55.91340 11831 ft 333 kts 221°
2026-04-25 12:50 -4.49803 55.89896 11697 ft 353 kts 221°
2026-04-25 12:50 -4.51696 55.88241 11080 ft 360 kts 221°
2026-04-25 12:51 -4.53555 55.86613 10365 ft 349 kts 221°
2026-04-25 12:51 -4.55342 55.85047 9640 ft 340 kts 221°
2026-04-25 12:51 -4.57120 55.83489 9008 ft 328 kts 221°
2026-04-25 12:51 -4.58787 55.82029 8406 ft 317 kts 221°
2026-04-25 12:52 -4.60435 55.80586 7783 ft 309 kts 221°
2026-04-25 12:52 -4.62017 55.79200 7192 ft 302 kts 221°
2026-04-25 12:52 -4.63582 55.77829 6618 ft 295 kts 221°
2026-04-25 12:52 -4.65119 55.76482 6036 ft 289 kts 221°
2026-04-25 12:53 -4.66619 55.75168 5478 ft 283 kts 221°
2026-04-25 12:53 -4.68073 55.73893 4954 ft 270 kts 221°
2026-04-25 12:53 -4.69464 55.72695 4449 ft 264 kts 219°
2026-04-25 12:53 -4.70983 55.71659 3959 ft 263 kts 214°
2026-04-25 12:54 -4.72501 55.70618 3471 ft 264 kts 215°
2026-04-25 12:54 -4.74016 55.69567 2977 ft 264 kts 214°
2026-04-25 12:54 -4.75396 55.68454 2429 ft 249 kts 229°
2026-04-25 12:54 -4.76135 55.66969 2004 ft 231 kts 254°
2026-04-25 12:55 -4.76205 55.65452 1977 ft 210 kts 276°
2026-04-25 12:55 -4.75949 55.64514 1978 ft 214 kts 291°
2026-04-25 12:55 -4.74870 55.62833 2006 ft 205 kts 305°
2026-04-25 12:55 -4.74114 55.61776 1957 ft 172 kts 304°
2026-04-25 12:56 -4.73478 55.60867 1739 ft 147 kts 304°
2026-04-25 12:56 -4.72927 55.60075 1561 ft 134 kts 303°
2026-04-25 12:56 -4.72401 55.59320 1392 ft 131 kts 304°
2026-04-25 12:56 -4.71884 55.58568 1233 ft 131 kts 304°
2026-04-25 12:57 -4.71363 55.57818 1071 ft 133 kts 303°
2026-04-25 12:57 -4.70828 55.57054 905 ft 134 kts 304°
2026-04-25 12:57 -4.70300 55.56295 740 ft 131 kts 304°
2026-04-25 12:57 -4.69784 55.55553 581 ft 129 kts 305°
2026-04-25 12:58 -4.69278 55.54827 410 ft 128 kts 305°
2026-04-25 12:58 -4.68773 55.54100 254 ft 126 kts 305°
2026-04-25 12:58 -4.68269 55.53378 90 ft 126 kts 305°
2026-04-25 12:58 -4.67782 55.52676 18 ft 113 kts 304°
2026-04-25 12:59 -4.67708 55.52569 17 ft 108 kts 304°
2026-04-25 12:59 -4.67463 55.52216 20 ft 71 kts 304°
2026-04-25 12:59 -4.67259 55.51914 20 ft 46 kts 303°
2026-04-25 12:59 -4.67091 55.51667 18 ft 40 kts 305°
2026-04-25 13:00 -4.66989 55.51522 18 ft 37 kts 305°
2026-04-25 13:00 -4.66911 55.51410 18 ft 15 kts 304°
2026-04-25 13:00 -4.66956 55.51327 17 ft 4 kts 217°
2026-04-25 13:00 -4.66956 55.51326 17 ft 0 kts 217°
2026-04-25 13:01 -4.66963 55.51321 17 ft 3 kts 217°
2026-04-25 13:01 -4.66982 55.51307 17 ft 3 kts 217°
2026-04-25 13:01 -4.67003 55.51291 17 ft 4 kts 217°
2026-04-25 13:01 -4.67018 55.51264 17 ft 5 kts 264°
2026-04-25 13:02 -4.67001 55.51224 19 ft 6 kts 303°
2026-04-25 13:02 -4.66972 55.51190 17 ft 6 kts 311°
2026-04-25 13:02 -4.66943 55.51155 17 ft 7 kts 309°
2026-04-25 13:02 -4.66951 55.51121 19 ft 6 kts 206°
2026-04-25 13:03 -4.66976 55.51105 17 ft 2 kts 215°
2026-04-25 13:03 -4.66984 55.51100 17 ft 1 kts 213°
2026-04-25 13:03 -4.66998 55.51091 17 ft 0 kts 213°